Weather History for Punta Gorda, FL

Change the Weather History Date:

Friday, January 18, 2013

  Actual Average Record
Temperature  
Mean Temperature 56 °F -  
Max Temperature 69 °F 71 °F 81 °F (2007)
Min Temperature 44 °F 47 °F 36 °F (1997)
Degree Days  
Heating Degree Days 8    
Growing Degree Days 6 (Base 50)    
Moisture  
Dew Point 46 °F    
Average Humidity 66    
Maximum Humidity 93    
Minimum Humidity 47    
Precipitation  
Precipitation 0.00 in - - ()
Sea Level Pressure  
Sea Level Pressure 30.24 in    
Wind  
Wind Speed 14 mph (NNE)    
Max Wind Speed 17 mph    
Max Gust Speed 23 mph    
Visibility 10 miles    
Events      
Averages and records for this station are not official NWS values.
T = Trace of Precipitation, MM = Missing Value Source: NWS Daily Summary

Daily Weather History Graph

Daily Weather History Graph

Search for Another Location

Airport:

Trip Planner

Search our weather history database for the weather conditions in past years. The results will help you decide how hot, cold, wet, or windy it might be!

Date:

Astronomy

Jan. 18, 2013 Rise Set
Actual Time 7:18 AM EST 5:59 PM EST
Civil Twilight 6:53 AM EST 6:24 PM EST
Nautical Twilight 6:24 AM EST 6:52 PM EST
Astronomical Twilight 5:56 AM EST 7:20 PM EST
Moon 11:41 AM EST (1/18) 12:05 AM EST (1/18)
Length of Visible Light 11h 30m
Length of Day
10h 41m
Waxing Crescent, 47% of the Moon is Illuminated
Jan 18
Waxing Crescent
Jan 18
First Quarter
Jan 26
Full
Feb 3
Last Quarter
Feb 10
New

Hourly Weather History & Observations

Time (EST) Temp. Windchill Dew Point Humidity Pressure Visibility Wind Dir Wind Speed Gust Speed Precip Events Conditions
12:53 AM 59.0 °F - 46.9 °F 64% 30.17 in 10.0 mi NW 15.0 mph 21.9 mph N/A   Overcast
1:53 AM 57.9 °F - 46.0 °F 65% 30.17 in 10.0 mi NW 17.3 mph 23.0 mph N/A   Overcast
2:08 AM 57.2 °F - 46.4 °F 67% 30.17 in 10.0 mi NNW 17.3 mph 21.9 mph N/A   Overcast
2:53 AM 55.9 °F - 44.1 °F 64% 30.18 in 10.0 mi NNW 15.0 mph - N/A   Overcast
3:53 AM 54.0 °F - 44.1 °F 69% 30.19 in 10.0 mi NNW 15.0 mph - N/A   Overcast
4:53 AM 53.1 °F - 44.1 °F 71% 30.19 in 10.0 mi North 11.5 mph - N/A   Overcast
5:53 AM 52.0 °F - 42.1 °F 69% 30.22 in 10.0 mi North 13.8 mph - N/A   Overcast
6:53 AM 44.1 °F 37.1 °F 34.0 °F 68% 30.27 in 10.0 mi NNE 15.0 mph 23.0 mph N/A   Scattered Clouds
7:53 AM 44.1 °F 37.1 °F 34.0 °F 68% 30.30 in 10.0 mi NNE 15.0 mph 20.7 mph N/A   Clear
8:53 AM 46.0 °F 39.0 °F 34.0 °F 63% 30.32 in 10.0 mi NNE 17.3 mph - N/A   Clear
9:53 AM 50.0 °F - 36.0 °F 59% 30.32 in 10.0 mi ENE 11.5 mph - N/A   Clear
10:53 AM 55.0 °F - 39.0 °F 55% 30.31 in 10.0 mi NNE 10.4 mph - N/A   Clear
11:53 AM 60.1 °F - 43.0 °F 53% 30.28 in 10.0 mi ENE 12.7 mph - N/A   Clear
12:53 PM 64.0 °F - 45.0 °F 50% 30.25 in 10.0 mi ENE 11.5 mph - N/A   Clear
1:53 PM 68.0 °F - 46.9 °F 47% 30.22 in 10.0 mi ENE 12.7 mph - N/A   Mostly Cloudy
2:53 PM 69.1 °F - 48.9 °F 49% 30.21 in 10.0 mi ENE 10.4 mph - N/A   Mostly Cloudy
3:53 PM 69.1 °F - 50.0 °F 51% 30.21 in 10.0 mi ENE 13.8 mph 21.9 mph N/A   Mostly Cloudy
4:53 PM 68.0 °F - 50.0 °F 52% 30.22 in 10.0 mi ENE 11.5 mph - N/A   Clear
5:53 PM 66.9 °F - 53.1 °F 61% 30.24 in 10.0 mi NE 10.4 mph - N/A   Overcast
6:53 PM 64.9 °F - 52.0 °F 63% 30.25 in 10.0 mi NNE 8.1 mph - N/A   Overcast
7:53 PM 62.1 °F - 55.0 °F 78% 30.26 in 10.0 mi NNE 6.9 mph - N/A   Scattered Clouds
8:53 PM 60.1 °F - 55.9 °F 86% 30.26 in 10.0 mi NNE 10.4 mph - N/A   Clear
9:53 PM 59.0 °F - 55.9 °F 90% 30.27 in 10.0 mi NNE 8.1 mph - N/A   Partly Cloudy
10:53 PM 57.9 °F - 55.9 °F 93% 30.27 in 10.0 mi NNE 6.9 mph - N/A   Clear
11:53 PM 59.0 °F - 57.0 °F 93% 30.25 in 10.0 mi NNE 9.2 mph - N/A   Clear